Regional Weather Roundup
Issued by NWS Charleston, SC

Current Version | Previous Version | Graphics & Text | Print | Product List | Glossary On
Versions: 1 2 3 4 5 6 7 8 9 10 11 12 13 14 15 16 17 18 19 20 21 22 23 24 25 26 27 28 29 30 31 32 33 34 35 36 37 38 39 40 41 42 43 44 45 46 47 48 49 50
000
ASUS42 KCHS 250728
RWRCHS

REGIONAL WEATHER ROUNDUP
NATIONAL WEATHER SERVICE CHARLESTON SC
300 AM EDT SUN SEP 25 2016

NOTE: "FAIR" INDICATES FEW OR NO CLOUDS BELOW 12,000 FEET WITH NO
SIGNIFICANT WEATHER AND/OR OBSTRUCTIONS TO VISIBILITY.

NOT ALL STATIONS ARE QUALITY CONTROLLED. USE DATA WITH CAUTION...
ESPECIALLY DEWPOINT OBSERVATIONS.

SCZ027-030-031-034>040-042>050-250800-
...SOUTHEAST SOUTH CAROLINA...

CITY           SKY/WX    TMP DP  RH WIND       PRES   REMARKS
N CHARLESTON   PTCLDY    73  70  90 CALM      30.03S
WATERFRONT PRK   N/A     78  76  94 CALM      30.01S
MOUNT PLEASANT FAIR      72  72 100 CALM      30.03S
JOHNS ISLAND   FAIR      73  72  94 CALM      30.03S
PINOPOLIS        N/A     73  73 100 CALM      29.96S
MONCKS CORNER  FAIR      68  68 100 CALM      30.03F
SUMMERVILLE    CLOUDY    70  70 100 CALM      30.05S FOG
BEAUFORT MCAS  CLEAR     74  72  93 CALM      30.03S
BEAUFORT ARPT  FAIR      73  73 100 CALM      30.02S
HILTON HEAD IS CLEAR     73  73 100 CALM      30.03S
WALTERBORO     FOG       70  70 100 CALM      30.04F VSB 1/4
ALLENDALE      FAIR      70  70 100 CALM      30.03S

...SOUTHERN MIDLANDS AND PEE DEE...

CITY           SKY/WX    TMP DP  RH WIND       PRES   REMARKS
GEORGETOWN     FAIR      68  66  94 CALM      30.04F FOG
KINGSTREE      PTSUNNY   64  64 100 CALM      30.04S
ORANGEBURG     CLEAR     69  68  96 CALM      30.05S
BARNWELL       NOT AVBL
AIKEN          FAIR      64  63  94 CALM      30.09S
MANNING        FAIR      66  64  94 CALM      30.04F
COLUMBIA       CLEAR     70  66  87 CALM      30.04S
SUMTER         CLEAR     69  67  90 CALM      30.02S
FLORENCE       CLEAR     70  68  93 CALM      30.05S
MYRTLE BEACH   CLEAR     72  63  73 CALM      30.06S
N MYRTLE BEACH CLEAR     71  70  96 CALM      30.04R FOG

$$

GAZ063-065-086>088-099>101-113>116-118-119-134>141-150-250800-
...SOUTHEAST GEORGIA...

CITY           SKY/WX    TMP DP  RH WIND       PRES   REMARKS
SAVANNAH ARPT  PTCLDY    73  71  93 CALM      30.03S
HUNTER AAF     PTCLDY    73  73 100 NW3       30.00F
FORT STEWART   MOCLDY    72  70  94 CALM      30.01S
STATESBORO     CLEAR     72  72  99 CALM      30.04S
SYLVANIA       NOT AVBL
CLAXTON        FAIR      71  71 100 CALM      30.04S

...CSRA...CENTRAL AND FAR SOUTHEAST GEORGIA...

CITY           SKY/WX    TMP DP  RH WIND       PRES   REMARKS
THOMSON        CLEAR     67  67  99 CALM      30.10S
AUGUSTA-BUSH   MOCLDY    66  66 100 CALM      30.04R FOG
AUGUSTA-DANIEL CLEAR     75  66  73 CALM      30.05S
SWAINSBORO     FAIR      72  68  88 CALM      30.05S
VIDALIA        MOCLDY    73  73 100 CALM      30.04S
EASTMAN        FAIR      72  72 100 CALM      30.06S
HAZLEHURST     FAIR      75  75 100 CALM      30.03S
ALMA           CLEAR     71  70  96 CALM      30.03S FOG
WAYCROSS       CLEAR     75  75 100 CALM      30.03S FOG
JESUP          FAIR      72  72 100 CALM      30.03S
BAXLEY         FAIR      72  72 100 CALM      30.03F
BRUNSWICK      FOG       72  72 100 CALM      30.03S VSB 1/4
SAINT SIMONS   PTCLDY    74  72  93 CALM      30.01F

$$

SCZ027-028-034-036>038-045-046-048>050-GAZ119-141-250800-
...LAKE AND SUPPLEMENTAL COASTAL OBSERVATIONS...

STATION/POSITION TIME  TEMP    WIND        PRES    WAVE   SWELL
                       AIR SEA DIR/SP/G            HT/PER HT/PER/DIR
                 (UTC) (F)     (DEG/KT/KT) (MB)    (FT/S) (FT/S/D)
WINYAH BAY       0645   71     330/  3     1016.0S
LAKE MURRAY      0650   74        CALM     1016.9S
ACE BASIN NERRS  0645   73        CALM     1017.0S
FORT PULASKI     0700   77 81  320/  3/  4 1016.9
SAPELO ISLAND    0630   73        CALM     1016.0F

$$

ANZ835-935-AMZ111-154-330-350-352-354-370-450-454-472-250800-
...C-MAN AND BUOY OBSERVATIONS...

STATION/POSITION TIME  TEMP    WIND        PRES    WAVE   SWELL
                       AIR SEA DIR/SP/G            HT/PER HT/PER/DIR
                 (UTC) (F)     (DEG/KT/KT) (MB)    (FT/S) (FT/S/D)
BUOY 41004       0650   81 82   50/ 10/ 12 1015.6F   4/11   3/ 90/11
BUOY 41008       0650   80 82   80/  2/  4 1016.1F   3/11   3/ 90/11
FOLLY BEACH CMAN 0700   80      70/  5/  5 1016.9S
CAPERS NEARSHORE 0708   80 81   70/  4/  6 1016.3F
FRIPP NEARSHORE  0608   80 81  100/  4/  8 1016.7F


STATION/POSITION TIME  TEMP    WIND        PRES    WAVE   SWELL
                       AIR SEA DIR/SP/G            HT/PER HT/PER/DIR
                 (UTC) (F)     (DEG/KT/KT) (MB)    (FT/S) (FT/S/D)
5E ST. MARYS GA  0601      82                N/A     3/11   2/100/11
FRYING PAN BUOY  0700   81 82   60/ 10/ 12 1016.3
BUOY 41025       0650   77 85   30/ 14/ 17 1017.1F   6/11   5/130/11
CAPE LOOKOUT NC  0700   77      60/ 12/ 14 1017.3F
BUOY 41002       0650   81 84   40/  4/  6 1015.4F   4/11   3/100/11
BUOY 41010       NOT AVBL
ST AUGUSTINE FL  0700   76 84  250/  4/  5 1017.1F


$$




USA.gov is the U.S. government's official web portal to all federal, state and local government web resources and services.